Weather History for Chippewa, MI

Change the Weather History Date:

Monday, December 19, 2011

  Actual Average Record
Temperature  
Mean Temperature 30 °F -  
Max Temperature 39 °F 25 °F 44 °F (2002)
Min Temperature 21 °F 6 °F -24 °F (1983)
Degree Days  
Heating Degree Days 35    
Moisture  
Dew Point 24 °F    
Average Humidity 72    
Maximum Humidity 87    
Minimum Humidity 63    
Precipitation  
Precipitation 0.00 in - - ()
Sea Level Pressure  
Sea Level Pressure 29.82 in    
Wind  
Wind Speed 13 mph (NW)    
Max Wind Speed 24 mph    
Max Gust Speed 31 mph    
Visibility 10 miles    
Events      
Averages and records for this station are not official NWS values.
T = Trace of Precipitation, MM = Missing Value Source: NWS Daily Summary

Daily Weather History Graph

Daily Weather History Graph

Search for Another Location

Airport:

Trip Planner

Search our weather history database for the weather conditions in past years. The results will help you decide how hot, cold, wet, or windy it might be!

Date:

Astronomy

Dec. 19, 2011 Rise Set
Actual Time 8:16 AM EST 4:53 PM EST
Civil Twilight 7:41 AM EST 5:28 PM EST
Nautical Twilight 7:03 AM EST 6:06 PM EST
Astronomical Twilight 6:26 AM EST 6:43 PM EST
Moon 2:12 AM EST (12/19) 1:02 PM EST (12/19)
Length of Visible Light 9h 46m
Length of Day
8h 36m
Waning Crescent, 31% of the Moon is Illuminated
Dec 19
Waning Crescent
Dec 24
New
Jan 1
First Quarter
Jan 9
Full
Jan 16
Last Quarter

Hourly Weather History & Observations

Time (EST) Temp. Windchill Dew Point Humidity Pressure Visibility Wind Dir Wind Speed Gust Speed Precip Events Conditions
12:15 AM 37.4 °F 30.8 °F 30.2 °F 75% 29.60 in 10.0 mi SW 9.2 mph 17.3 mph N/A   Overcast
12:35 AM 37.4 °F 30.8 °F 30.2 °F 75% 29.59 in 10.0 mi SW 9.2 mph - N/A   Overcast
12:55 AM 37.4 °F 31.4 °F 32.0 °F 81% 29.58 in 10.0 mi SW 8.1 mph 16.1 mph N/A   Overcast
1:15 AM 37.4 °F 30.8 °F 33.8 °F 87% 29.58 in 10.0 mi SW 9.2 mph - N/A   Overcast
1:35 AM 39.2 °F 32.0 °F 33.8 °F 81% 29.57 in 10.0 mi WSW 11.5 mph 19.6 mph N/A   Overcast
1:55 AM 39.2 °F 32.5 °F 32.0 °F 75% 29.56 in 10.0 mi WSW 10.4 mph 23.0 mph N/A   Overcast
2:15 AM 39.2 °F 30.8 °F 33.8 °F 81% 29.56 in 10.0 mi SW 15.0 mph 23.0 mph N/A   Overcast
2:35 AM 37.4 °F 28.5 °F 32.0 °F 81% 29.56 in 10.0 mi WSW 15.0 mph 20.7 mph N/A   Mostly Cloudy
2:55 AM 37.4 °F 29.8 °F 30.2 °F 75% 29.57 in 10.0 mi WSW 11.5 mph 19.6 mph N/A   Partly Cloudy
3:15 AM 37.4 °F 29.3 °F 30.2 °F 75% 29.57 in 10.0 mi West 12.7 mph 19.6 mph N/A   Partly Cloudy
3:35 AM 35.6 °F 28.6 °F 30.2 °F 81% 29.58 in 10.0 mi West 9.2 mph - N/A   Clear
3:55 AM 35.6 °F 28.6 °F 30.2 °F 81% 29.58 in 10.0 mi West 9.2 mph - N/A   Clear
4:15 AM 35.6 °F 28.6 °F 30.2 °F 81% 29.58 in 10.0 mi West 9.2 mph - N/A   Clear
4:35 AM 35.6 °F 29.2 °F 30.2 °F 81% 29.58 in 10.0 mi WSW 8.1 mph - N/A   Mostly Cloudy
5:15 AM 35.6 °F 26.6 °F 28.4 °F 75% 29.59 in 10.0 mi West 13.8 mph - N/A   Overcast
5:35 AM 35.6 °F 27.5 °F 28.4 °F 75% 29.60 in 10.0 mi West 11.5 mph 17.3 mph N/A   Overcast
5:55 AM 35.6 °F 27.5 °F 30.2 °F 81% 29.61 in 10.0 mi West 11.5 mph - N/A   Overcast
6:15 AM 35.6 °F 26.6 °F 28.4 °F 75% 29.62 in 10.0 mi West 13.8 mph - N/A   Overcast
6:35 AM 35.6 °F 26.6 °F 28.4 °F 75% 29.63 in 10.0 mi West 13.8 mph - N/A   Overcast
6:55 AM 35.6 °F 25.5 °F 28.4 °F 75% 29.64 in 10.0 mi West 17.3 mph - N/A   Overcast
7:15 AM 35.6 °F 26.2 °F 28.4 °F 75% 29.66 in 10.0 mi WNW 15.0 mph 20.7 mph N/A   Overcast
7:35 AM 35.6 °F 26.6 °F 30.2 °F 81% 29.67 in 9.0 mi WNW 13.8 mph - N/A   Overcast
7:55 AM 35.6 °F 27.1 °F 30.2 °F 81% 29.68 in 10.0 mi WNW 12.7 mph - N/A   Overcast
8:35 AM 35.6 °F 24.8 °F 30.2 °F 81% 29.70 in 10.0 mi WNW 19.6 mph 24.2 mph N/A   Overcast
8:55 AM 35.6 °F 25.9 °F 28.4 °F 75% 29.71 in 10.0 mi WNW 16.1 mph 25.3 mph N/A   Overcast
9:15 AM 35.6 °F 25.9 °F 28.4 °F 75% 29.73 in 10.0 mi NW 16.1 mph 26.5 mph N/A   Overcast
9:35 AM 33.8 °F 21.3 °F 26.6 °F 75% 29.74 in 10.0 mi NW 24.2 mph 28.8 mph N/A   Overcast
9:55 AM 33.8 °F 23.2 °F 24.8 °F 70% 29.76 in 10.0 mi WNW 17.3 mph 26.5 mph N/A   Overcast
10:15 AM 33.8 °F 22.5 °F 24.8 °F 70% 29.78 in 10.0 mi WNW 19.6 mph 27.6 mph N/A   Overcast
10:35 AM 33.8 °F 21.9 °F 23.0 °F 65% 29.79 in 10.0 mi WNW 21.9 mph 26.5 mph N/A   Overcast
10:55 AM 33.8 °F 23.5 °F 24.8 °F 70% 29.82 in 10.0 mi WNW 16.1 mph 27.6 mph N/A   Overcast
11:15 AM 33.8 °F 22.2 °F 24.8 °F 70% 29.83 in 10.0 mi NW 20.7 mph 26.5 mph N/A   Overcast
11:35 AM 33.8 °F 22.8 °F 24.8 °F 70% 29.84 in 10.0 mi NW 18.4 mph 25.3 mph N/A   Overcast
11:55 AM 32.0 °F 19.2 °F 21.2 °F 64% 29.85 in 10.0 mi NW 23.0 mph 28.8 mph N/A   Overcast
12:55 PM 30.2 °F 16.8 °F 21.2 °F 69% 29.88 in 10.0 mi NNW 23.0 mph 27.6 mph N/A   Overcast
1:15 PM 30.2 °F 16.5 °F 19.4 °F 64% 29.89 in 10.0 mi NNW 24.2 mph 29.9 mph N/A   Overcast
1:35 PM 30.2 °F 18.1 °F 19.4 °F 64% 29.91 in 10.0 mi NNW 18.4 mph 24.2 mph N/A   Overcast
1:55 PM 28.4 °F 15.4 °F 19.4 °F 69% 29.92 in 10.0 mi NNW 19.6 mph 25.3 mph N/A   Overcast
2:15 PM 28.4 °F 16.6 °F 19.4 °F 69% 29.93 in 10.0 mi NNW 16.1 mph - N/A   Overcast
2:35 PM 28.4 °F 15.1 °F 17.6 °F 64% 29.94 in 10.0 mi NNW 20.7 mph 29.9 mph N/A   Overcast
2:55 PM 28.4 °F 15.4 °F 19.4 °F 69% 29.96 in 10.0 mi NW 19.6 mph 28.8 mph N/A   Overcast
3:15 PM 26.6 °F 12.0 °F 19.4 °F 74% 29.96 in 10.0 mi North 23.0 mph 26.5 mph N/A   Overcast
3:35 PM 26.6 °F 13.4 °F 17.6 °F 69% 29.98 in 10.0 mi NNW 18.4 mph 31.1 mph N/A   Overcast
3:55 PM 26.6 °F 12.7 °F 17.6 °F 69% 29.99 in 10.0 mi NNW 20.7 mph 28.8 mph N/A   Overcast
4:35 PM 26.6 °F 13.8 °F 17.6 °F 69% 30.03 in 10.0 mi NNW 17.3 mph 25.3 mph N/A   Overcast
4:55 PM 26.6 °F 13.8 °F 17.6 °F 69% 30.04 in 10.0 mi NNW 17.3 mph 21.9 mph N/A   Overcast
5:15 PM 26.6 °F 14.3 °F 17.6 °F 69% 30.05 in 10.0 mi NNW 16.1 mph 23.0 mph N/A   Overcast
5:35 PM 26.6 °F 15.2 °F 17.6 °F 69% 30.06 in 10.0 mi NNW 13.8 mph 23.0 mph N/A   Overcast
5:55 PM 26.6 °F 15.2 °F 17.6 °F 69% 30.07 in 10.0 mi NNW 13.8 mph 18.4 mph N/A   Overcast
6:15 PM 26.6 °F 14.7 °F 15.8 °F 64% 30.08 in 10.0 mi North 15.0 mph 24.2 mph N/A   Overcast
6:35 PM 24.8 °F 12.4 °F 15.8 °F 69% 30.09 in 10.0 mi North 15.0 mph 19.6 mph N/A   Overcast
6:55 PM 24.8 °F 12.9 °F 14.0 °F 64% 30.11 in 10.0 mi North 13.8 mph - N/A   Overcast
7:15 PM 24.8 °F 15.3 °F 14.0 °F 64% 30.13 in 10.0 mi North 9.2 mph - N/A   Overcast
8:15 PM 23.0 °F 13.9 °F 14.0 °F 68% 30.16 in 10.0 mi North 8.1 mph - N/A   Overcast
8:35 PM 23.0 °F 15.8 °F 12.2 °F 63% 30.18 in 10.0 mi North 5.8 mph - N/A   Overcast
8:55 PM 23.0 °F 15.8 °F 12.2 °F 63% 30.17 in 10.0 mi NNE 5.8 mph - N/A   Overcast
9:15 PM 21.2 °F 12.6 °F 12.2 °F 68% 30.17 in 10.0 mi NNE 6.9 mph - N/A   Overcast
9:35 PM 21.2 °F 14.9 °F 12.2 °F 68% 30.18 in 10.0 mi NE 4.6 mph - N/A   Overcast
9:55 PM 21.2 °F 16.4 °F 12.2 °F 68% 30.19 in 10.0 mi ENE 3.5 mph - N/A   Overcast
10:15 PM 21.2 °F 16.4 °F 12.2 °F 68% 30.19 in 10.0 mi ENE 3.5 mph - N/A   Overcast
10:35 PM 21.2 °F - 12.2 °F 68% 30.20 in 10.0 mi Calm Calm - N/A   Overcast
10:55 PM 21.2 °F 14.9 °F 12.2 °F 68% 30.20 in 10.0 mi ESE 4.6 mph - N/A   Overcast
11:35 PM 21.2 °F 14.9 °F 12.2 °F 68% 30.21 in 10.0 mi East 4.6 mph - N/A   Overcast
11:55 PM 21.2 °F 14.9 °F 12.2 °F 68% 30.20 in 10.0 mi ESE 4.6 mph - N/A   Overcast